Weather in Yumatovo

Russia / Republic of Bashkortostan     54°37′09″N   55°39′19″E
temp.,
°C
wind,
m/s
gust,
m/s
humid.,
%
clouds,
%
prec.,
mm/h
press.,
hPa
HPBL,
m
14 august, sun
sun1423:00+21nnw4105569 0.0 1018399
02:00+16n346686 0.0 101973
05:00+14n227298 0.0 102034
08:00+17n356518 0.0 1020219
11:00+21nne55435 0.0 1020901
14:00+23nne55365 0.0 10201614
17:00+23nne563667 0.0 10201673
20:00+19n4854100 0.0 1020194
15 august, mon
mon1523:00+15nne33601 0.0 102136
02:00+13ne23650 0.0 102230
05:00+12ne33650 0.0 102233
08:00+15ne35580 0.0 1023164
11:00+21ene34410 0.0 1023745
14:00+23ne33340 0.0 10231689
17:00+24ne34350 0.0 10221884
20:00+20ne22550 0.0 102213
16 august, tue
tue1623:00+16nne11600 0.0 102311
02:00+15n11640 0.0 102311
05:00+14n116739 0.0 102411
08:00+17ne12610 0.0 1025112
11:00+22ne34490 0.0 1025804
14:00+24ne33350 0.0 10241602
17:00+25ne34330 0.0 10241799
20:00+20ne22525 0.0 102416
17 august, wed
wed1723:00+16nne22585 0.0 102411
02:00+15ene11625 0.0 102411
05:00+14nne1166100 0.0 102410
08:00+17nne226193 0.0 1024108
11:00+22ne235061 0.0 1024586
14:00+24nne2342100 0.0 10221543
17:00+25n3339100 0.0 10212005
20:00+21ne335794 0.0 102140
18 august, thu
thu1823:00+17e11625 0.0 102111
02:00+16nne11645 0.0 102111
05:00+14e1170100 0.0 102110
08:00+16ne23680 0.0 1021163
11:00+21ne44571 0.0 1022841
14:00+23nne45444 0.0 10211805
17:00+23nne663455 0.0 10221781
20:00+18nne5104560 0.0 1023322